OSCAR 7 (AO-7) 1 07530U 74089B 26195.03649198 -.00000030 00000+0 99893-4 0 9991 2 07530 101.9905 208.5629 0012657 80.4928 348.4864 12.53698534363887 PHASE 3B (AO-10) 1 14129U 83058B 26194.10401075 -.00000187 00000+0 00000+0 0 9996 2 14129 25.9345 215.2934 6002223 122.7887 309.2966 2.05872336296023 UOSAT 2 (UO-11) 1 14781U 84021B 26194.86752083 .00000684 00000+0 75115-4 0 9997 2 14781 97.8075 160.1477 0009198 95.1181 265.1087 14.90847126261108 LUSAT (LO-19) 1 20442U 90005G 26195.04285069 .00000042 00000+0 31693-4 0 9994 2 20442 98.8847 217.5876 0012504 124.5771 235.6594 14.34130536906248 EYESAT A (AO-27) 1 22825U 93061C 26195.20017669 .00000039 00000+0 31953-4 0 9998 2 22825 98.6869 262.6022 0008818 28.6268 331.5397 14.30948896710869 ITAMSAT (IO-26) 1 22826U 93061D 26195.17152561 .00000038 00000+0 31180-4 0 9997 2 22826 98.6816 262.4937 0009021 12.3228 347.8174 14.31376485711176 RADIO ROSTO (RS15) 1 23439U 94085A 26195.16615284 -.00000039 00000+0 11356-3 0 9994 2 23439 64.8153 259.5850 0156881 358.8979 1.1579 11.27583533298945 JAS-2 (FO-29) 1 24278U 96046B 26195.14876856 .00000015 00000+0 50140-4 0 9995 2 24278 98.5220 40.3250 0350411 26.6515 335.2172 13.53275581476813 TECHSAT 1B (GO-32) 1 25397U 98043D 26194.96741119 .00000013 00000+0 25815-4 0 9998 2 25397 99.0084 188.4033 0002157 116.4622 243.6777 14.24433220455142 ISS (ZARYA) 1 25544U 98067A 26195.15353936 .00004039 00000+0 81426-4 0 9998 2 25544 51.6308 166.6375 0006704 293.6864 66.3421 15.49005057575931 PCSAT (NO-44) 1 26931U 01043C 26195.18939458 .00000010 00000+0 34689-4 0 9993 2 26931 67.0494 174.4309 0005925 266.5157 93.5268 14.31964773294311 SAUDISAT 1C (SO-50) 1 27607U 02058C 26195.19516802 .00000388 00000+0 63774-4 0 9991 2 27607 64.5517 45.4195 0074559 257.4690 101.8068 14.83097342268464 CUTE-1 (CO-55) 1 27844U 03031E 26195.01226219 .00000150 00000+0 83592-4 0 9994 2 27844 98.6742 203.2342 0010809 105.7080 254.5292 14.24351102195498 CUBESAT XI-IV (CO-57) 1 27848U 03031J 26194.52222380 .00000129 00000+0 75510-4 0 9995 2 27848 98.6773 202.4416 0010486 123.7879 236.4299 14.23634003195125 MOZHAETS 4 (RS22) 1 27939U 03042A 26195.18432279 .00000769 00000+0 12649-3 0 9994 2 27939 98.3470 20.3073 0011131 176.4663 315.0484 14.73514156219529 CUBESAT XI-V 1 28895U 05043F 26194.96899928 .00000696 00000+0 11722-3 0 9992 2 28895 98.3013 351.1584 0015221 118.8441 241.4296 14.72700573105698 CUTE-1.7+APD II (CO-65) 1 32785U 08021C 26195.16052352 .00003093 00000+0 19607-3 0 9993 2 32785 97.8289 177.1472 0007115 303.6088 56.4461 15.09695039989268 SEEDS II (CO-66) 1 32791U 08021J 26194.95931626 .00011026 00000+0 34146-3 0 9996 2 32791 97.7520 194.1541 0002932 158.7607 201.3756 15.33640090991395 YUBILEINY (RS30) 1 32953U 08025A 26195.13909505 .00000061 00000+0 36661-3 0 9993 2 32953 82.5054 338.6732 0018583 251.4538 108.4523 12.43180930823044 KKS-1 (KISEKI) 1 33499U 09002H 26195.10755215 .00000660 00000+0 87709-4 0 9994 2 33499 98.1175 117.9763 0007338 192.7348 167.3681 14.83187738940184 SWISSCUBE 1 35932U 09051B 26195.19308272 .00000489 00000+0 10606-3 0 9998 2 35932 98.4009 103.5496 0007816 121.6885 238.5079 14.62529785893109 BEESAT-1 1 35933U 09051C 26194.73748186 .00000394 00000+0 88826-4 0 9995 2 35933 98.3937 102.6657 0006039 133.6539 226.5163 14.61760532893065 ITUPSAT1 1 35935U 09051E 26194.68314044 .00000364 00000+0 85196-4 0 9997 2 35935 98.4020 101.7741 0007976 147.4965 212.6727 14.60477451892607 XIWANG-1 (HOPE-1) 1 36122U 09072B 26195.14756839 .00000278 00000+0 84357-3 0 9994 2 36122 100.4031 148.5506 0007514 166.9376 193.1933 13.16441124796557 O/OREOS (USA 219) 1 37224U 10062C 26194.84908230 .00001132 00000+0 11239-3 0 9998 2 37224 71.9696 19.9384 0013908 7.7163 352.4219 14.93848747120629 JUGNU 1 37839U 11058B 26195.20044441 .00000341 00000+0 38942-4 0 9994 2 37839 19.9593 144.3072 0018539 15.5090 113.9676 14.13783328762856 SRMSAT 1 37841U 11058D 26194.45621951 .00000344 00000+0 42889-4 0 9998 2 37841 19.9713 260.4725 0011810 132.1672 338.6137 14.11580880761533 STRAND-1 1 39090U 13009E 26195.06912199 .00000136 00000+0 59984-4 0 9992 2 39090 98.3933 14.6434 0009358 144.1848 215.9968 14.37178494700921 ZACUBE-1 (TSHEPISOSAT) 1 39417U 13066B 26194.93495080 .00001330 00000+0 10618-3 0 9995 2 39417 97.8009 157.4041 0043958 159.2498 201.0523 15.01325644684741 GOMX-1 1 39430U 13066Q 26195.14989131 .00000799 00000+0 12654-3 0 9999 2 39430 97.6470 33.9113 0128377 351.5784 8.3268 14.69541528673878 CUBEBUG-2 (LO-74) 1 39440U 13066AA 26194.85564855 .00001982 00000+0 18634-3 0 9998 2 39440 97.8911 143.9522 0055843 299.8965 59.6713 14.93961470680971 FUNCUBE-1 (AO-73) 1 39444U 13066AE 26194.96715403 .00003609 00000+0 22382-3 0 9994 2 39444 97.8287 166.9802 0038025 111.5957 248.9329 15.09809112683703 UWE-3 1 39446U 13066AG 26194.81649093 .00001855 00000+0 16225-3 0 9991 2 39446 97.8703 151.0751 0047496 229.2786 130.4306 14.97193233681563 UNISAT-6 1 40012U 14033C 26194.95863352 .00001158 00000+0 12894-3 0 9992 2 40012 97.7907 347.2055 0044277 341.9185 18.0454 14.88363714650142 DUCHIFAT-1 1 40021U 14033M 26195.15102648 .00100682 00000+0 80375-3 0 9990 2 40021 98.0414 258.2325 0002570 244.3653 115.7342 15.70816354659972 QB50P1 1 40025U 14033R 26194.57500626 .00005023 00000+0 24591-3 0 9998 2 40025 98.0963 207.5784 0010293 129.5975 230.6167 15.18651217657037 LILACSAT-2 1 40908U 15049K 26195.16027172 .00012820 00000+0 21186-3 0 9992 2 40908 97.4624 233.0387 0008363 144.5879 215.5930 15.52336114599930 FOX-1A (AO-85) 1 40967U 15058D 26195.18138659 .00001712 00000+0 16126-3 0 9998 2 40967 64.7724 195.0853 0132264 46.1915 315.0044 14.91084963117598 CAS-2T & KS-1Q 1 41847U 16066G 26195.18162937 .00000568 00000+0 87908-4 0 9997 2 41847 98.3813 270.6089 0342292 47.8306 315.1423 14.44769101508694 RADFXSAT (FOX-1B) 1 43017U 17073E 26195.12704152 .00004246 00000+0 18661-3 0 9998 2 43017 97.4668 61.7931 0148209 235.2076 123.5134 15.13052032469463 DIWATA-2B 1 43678U 18084H 26195.17737841 .00001152 00000+0 96416-4 0 9998 2 43678 98.1214 32.5677 0012888 87.3874 272.8824 15.00560838420262 ES'HAIL 2 1 43700U 18090A 26195.13638836 .00000138 00000+0 00000+0 0 9993 2 43700 0.0180 33.3857 0002160 125.7382 207.7573 1.00270304 27941 FOX-1CLIFF (AO-95) 1 43770U 18099N 26195.14167903 .00006551 00000+0 24788-3 0 9990 2 43770 97.4374 255.2963 0007177 244.6856 115.3640 15.27260267417332 ITASAT 1 43786U 18099AE 26195.09229179 .00004083 00000+0 19599-3 0 9997 2 43786 97.4016 246.0701 0010814 254.8802 105.1236 15.19374072416996 JY1SAT (JO-97) 1 43803U 18099AX 26195.16525088 .00009989 00000+0 30106-3 0 9990 2 43803 97.4121 258.1063 0006750 161.0997 199.0497 15.34498350417766 UWE-4 1 43880U 18111E 26194.80072744 .00020115 00000+0 38928-3 0 9990 2 43880 97.5848 124.4503 0005951 200.2503 159.8511 15.47760123414899 TIANYAN 01 1 44881U 19093C 26195.17132380 .00001007 00000+0 11955-3 0 9996 2 44881 97.7531 266.7442 0013683 5.1756 354.9598 14.86562658355428 RS-44 & BREEZE-KM R/B 1 44909U 19096E 26194.82115456 .00000000 00000+0 -51609-4 0 9990 2 44909 82.5240 322.0071 0218543 82.1898 280.3952 12.79748918305758 SALSAT 1 46495U 20068K 26194.96022582 .00004471 00000+0 15597-3 0 9995 2 46495 97.8856 199.6626 0009069 197.5036 162.5892 15.30161661319452 XW-3 (CAS-9) 1 50466U 21131B 26195.19727521 .00000246 00000+0 89471-4 0 9990 2 50466 98.4992 287.4412 0004655 33.2148 326.9332 14.41381168239002 GREENCUBE (IO-117) 1 53109U 22080E 26193.70867104 -.00000003 00000+0 00000+0 0 9996 2 53109 70.1415 289.3709 0009030 284.1311 75.8345 6.42583319 93700 UMKA 1 (RS40S) 1 57172U 23091G 26195.19914007 .00003326 00000+0 15237-3 0 9995 2 57172 97.5039 253.7952 0013168 32.8184 327.3866 15.21114664168118 CUBESX-HSE 3 (RS42S) 1 57178U 23091N 26195.15728556 .00007562 00000+0 24803-3 0 9994 2 57178 97.5083 261.0953 0009780 5.7659 354.3693 15.31868953168551 MONITOR-3 (RS58S) 1 57180U 23091Q 26195.17698160 .00006157 00000+0 22536-3 0 9996 2 57180 97.5073 258.8284 0011098 13.2925 346.8605 15.28361019168410 MONITOR-4 (RS57S) 1 57182U 23091S 26195.15453552 .00006408 00000+0 23379-3 0 9995 2 57182 97.5068 258.7783 0011091 13.7926 346.3614 15.28447668168418 MONITOR-2 (RS39S) 1 57184U 23091U 26195.18894844 .00002731 00000+0 13308-3 0 9999 2 57184 97.5061 253.2990 0011510 27.4106 332.7733 15.19149041168056 SVYATOBOR 1 (RS60S) 1 57187U 23091X 26195.19152796 .00005310 00000+0 20272-3 0 9990 2 57187 97.5080 259.1636 0008832 8.3095 351.8288 15.27053375168432 VIZARD-METEO (RS38S) 1 57189U 23091Z 26195.17534338 .00009427 00000+0 26385-3 0 9990 2 57189 97.5085 265.2153 0005742 343.8040 16.3019 15.36854708168833 POLYTECH-UNIVERSE 3 (R*) 1 57191U 23091AB 26195.14661272 .00002768 00000+0 13381-3 0 9991 2 57191 97.5035 252.7611 0016163 41.1027 319.1422 15.19361154168047 UTMN 2 (RS27S) 1 57203U 23091AP 26195.16033426 .00007389 00000+0 23649-3 0 9993 2 57203 97.5080 262.7650 0006842 354.1235 5.9925 15.32686855168676 KUZGTU 1 (RS47S) 1 57217U 23091AV 26195.10738405 .00007464 00000+0 25571-3 0 9991 2 57217 97.5054 259.8702 0010173 10.1572 349.9872 15.30456024168495 SONATE-2 1 59112U 24043Q 26194.95526617 .00029149 00000+0 35093-3 0 9991 2 59112 97.5553 347.0382 0006889 110.1263 250.0735 15.60757395132068 MESAT1 1 60209U 24125G 26195.15738418 .00048668 00000+0 46837-3 0 9993 2 60209 97.2249 53.3108 0010960 115.7447 244.4946 15.66341348113781 OOV-CUBE (TUBSAT-30) 1 60240U 24128F 26195.13595913 .00001043 00000+0 91808-4 0 9995 2 60240 61.9937 131.5963 0041269 139.7934 220.6223 15.02871344110166 COLIBRI-S (RS67S) 1 61746U 24199M 26195.14188617 .00014158 00000+0 26451-3 0 9997 2 61746 97.2955 69.2578 0008856 165.7261 194.4242 15.48821344141580 HORS 3 (RS81S) 1 61753U 24199U 26195.16530176 .00024844 00000+0 34664-3 0 9996 2 61753 97.2937 71.5751 0007085 158.9010 201.2539 15.56856242141755 HORS 4 (RS82S) 1 61754U 24199V 26195.16655413 .00036265 00000+0 41058-3 0 9994 2 61754 97.2881 72.9662 0006922 151.1831 208.9811 15.62313274141853 SIT-2086 1 61764U 24199AF 26195.17634551 .00024756 00000+0 37007-3 0 9997 2 61764 97.2893 71.9693 0008158 147.5361 212.6396 15.54969095138620 HYPERVIEW 1G (RS66S) 1 61772U 24199AP 26194.97856389 .00176797 00000+0 74626-3 0 9999 2 61772 97.2813 76.2153 0008247 151.3914 208.7811 15.84916828138904 ALTAIR (RS65S) 1 61779U 24199AW 26195.19060623 .00006673 00000+0 18329-3 0 9992 2 61779 97.2995 64.3679 0011910 200.1166 159.9611 15.37493675141262 ASRTU-1 (AO-123) 1 61781U 24199AY 26195.13801147 .00004539 00000+0 13131-3 0 9998 2 61781 97.2966 63.5680 0012892 204.6366 155.4264 15.36044360138068 SAMSAT-IONOSPHERE (RS7*) 1 61784U 24199BB 26195.14883199 .00035084 00000+0 43286-3 0 9992 2 61784 97.2903 71.7127 0009088 163.6674 196.4878 15.60054104141769 RTU MIREA 1 (RS51S) 1 61785U 24199BC 26195.17200740 .00043896 00000+0 46092-3 0 9999 2 61785 97.2888 72.7200 0009201 158.3719 201.7931 15.64186288138683 TEVEL2-4 1 63213U 25052D 26195.16880012 .00010817 00000+0 31530-3 0 9999 2 63213 97.3874 91.6185 0003629 53.7808 306.3771 15.35543856 74256 TEVEL2-5 1 63214U 25052E 26195.12727550 .00011592 00000+0 33972-3 0 9996 2 63214 97.3871 91.5170 0003740 55.0264 305.1330 15.35356519 74247 TEVEL2-6 1 63215U 25052F 26194.68399480 .00010540 00000+0 30960-3 0 9990 2 63215 97.3876 91.0570 0003725 58.8259 301.3350 15.35309707 74179 TEVEL2-1 1 63217U 25052H 26195.17892284 .00010878 00000+0 32509-3 0 9992 2 63217 97.3850 91.1450 0004326 62.5527 297.6156 15.34753724 74238 TEVEL2-3 1 63218U 25052J 26195.17252395 .00010440 00000+0 31151-3 0 9993 2 63218 97.3851 91.1639 0004095 63.3095 296.8567 15.34815122 74239 TEVEL2-2 1 63219U 25052K 26195.17905770 .00010846 00000+0 32404-3 0 9998 2 63219 97.3845 91.1481 0004384 62.7523 297.4166 15.34764241 74235 OTP-2 1 63235U 25052AB 26195.14438439 .00003906 00000+0 16249-3 0 9994 2 63235 97.3840 87.1741 0008232 73.9596 286.2547 15.24329259 73976 TEVEL2-9 1 63237U 25052AD 26195.19196980 .00010152 00000+0 32345-3 0 9999 2 63237 97.3911 90.4760 0007744 60.2965 299.9047 15.32713369 74167 TEVEL2-7 1 63238U 25052AE 26195.17294671 .00009686 00000+0 31178-3 0 9997 2 63238 97.3909 90.3613 0007835 59.6827 300.5189 15.32397562 74159 TEVEL2-8 1 63239U 25052AF 26195.18145931 .00009635 00000+0 31031-3 0 9995 2 63239 97.3909 90.3457 0007858 60.3115 299.8909 15.32382462 74153 INNOSAT 16 (RS92S7) 1 64878U 25155C 26195.15639222 .00003121 00000+0 12501-3 0 9992 2 64878 97.4579 162.2060 0012480 91.6053 268.6615 15.25731820 84787 GEOSCAN 6 (RS92S6) 1 64879U 25155D 26195.18532999 .00006085 00000+0 20779-3 0 9997 2 64879 97.4568 163.8536 0009978 84.9881 275.2498 15.30642181 84895 GEOSCAN 1 (RS92S1) 1 64880U 25155E 26195.17680869 .00006513 00000+0 21783-3 0 9990 2 64880 97.4565 164.0175 0009925 85.2823 274.9551 15.31289075 84906 239ALFEROV (RS61S) 1 64881U 25155F 26195.17164273 .00008570 00000+0 26550-3 0 9999 2 64881 97.4563 164.6677 0009609 85.0084 275.2255 15.33652078 84942 GEOSCAN 2 (RS92S2) 1 64890U 25155Q 26195.16585323 .00006333 00000+0 21026-3 0 9999 2 64890 97.4564 164.1694 0009080 75.4410 284.7838 15.31546760 84913 GEOSCAN 5 (RS92S5) 1 64891U 25155R 26195.22039655 .00008656 00000+0 26562-3 0 9999 2 64891 97.4557 164.8647 0008650 89.2424 270.9810 15.33959543 84962 GEOSCAN 4 (RS92S4) 1 64892U 25155S 26195.13654002 .00009366 00000+0 28569-3 0 9997 2 64892 97.4560 164.8365 0008586 89.7180 270.5047 15.34125733 84950 GEOSCAN 3 (RS92S3) 1 64893U 25155T 26195.16611900 .00010964 00000+0 31182-3 0 9992 2 64893 97.4546 165.3772 0008630 90.0031 270.2202 15.36285872 84990 INNOSAT 3 (RS92S0) 1 64894U 25155U 26195.19421751 .00025661 00000+0 53048-3 0 9994 2 64894 97.4491 167.3776 0008296 93.2736 266.9462 15.45766831 85137 KNACKSAT-2 1 67683U 98067XZ 26195.17133874 .00035210 00000+0 39407-3 0 9993 2 67683 51.6265 158.5001 0008030 324.3037 35.7419 15.62331997 24494